Location: Cypress Hills Dark-Sky Preserve - CHICO
(49.6176°N, 110.2634°W)
Time: 00:00:24
(UTC-07:00)

Amateur Radio Satellites - All Passes

Search period start: 03 March 2015 23:30
Search period end: 04 March 2015 23:30
Location: Cypress Hills Dark-Sky Preserve - CHICO, 49.6176°N, 110.2634°W

Satellite Date Start Highest point End Downlink Frequencies (MHz)
Time Altitude Azimuth
DUCHIFAT 1 03 Mar 23:31:03 23:35:17 71° 102° (ESE) 23:39:29 145.980
PCSat 03 Mar 23:33:15 23:37:11 19° 334° (NNW) 23:41:03 145.827
TIGRISAT 03 Mar 23:33:21 23:37:36 66° 287° (WNW) 23:41:52 435.000
DANDE 03 Mar 23:41:11 23:46:55 38° 97° (E) 23:51:22 436.750
ANTELSAT 03 Mar 23:47:48 23:51:56 47° 290° (WNW) 23:56:05 437.575/2403.000
ITUPSAT 1 03 Mar 23:49:54 23:53:41 24° 61° (ENE) 23:57:34 437.325
BEESAT 3 03 Mar 23:50:58 23:54:08 21° 30° (NNE) 23:57:20 437.485
POPSAT HIP 1 03 Mar 23:52:43 23:56:57 70° 287° (WNW) 00:01:09 437.405
POLYITAN 1 03 Mar 23:52:54 23:57:08 69° 286° (WNW) 00:01:19 437.675
CUSAT 1 04 Mar 00:03:06 00:08:53 67° 101° (E) 00:13:11 437.405
CUBEBUG 1 04 Mar 00:11:17 00:13:55 15° 273° (W) 00:16:24 437.445
NANOSAT C BR1 04 Mar 00:15:34 00:19:35 42° 291° (WNW) 00:23:32 145.865
BEESAT 2 04 Mar 00:17:52 00:21:27 27° 35° (NE) 00:25:01 435.950
GONETS M04 04 Mar 00:18:32 00:25:41 26° 303° (WNW) 00:32:38
YUBILEINY 04 Mar 00:20:13 00:22:39 11° 37° (NE) 00:25:32 435.215
AIST 2 04 Mar 00:22:54 00:25:58 19° 26° (NNE) 00:29:03 435.215
TISAT 1 04 Mar 00:35:32 00:39:15 28° 266° (W) 00:42:56 437.305
SPROUT 04 Mar 00:36:38 00:40:19 26° 267° (W) 00:43:56 437.525
UNISAT 6 04 Mar 00:46:54 00:49:28 15° 301° (WNW) 00:51:56 437.425
KKS-1 04 Mar 00:48:46 00:51:51 19° 60° (ENE) 00:55:02 437.445
QB50P1 04 Mar 00:49:20 00:52:37 22° 297° (WNW) 00:55:49 145.935-145.965
SWISSCUBE 04 Mar 00:49:46 00:54:33 81° 74° (ENE) 00:59:23 437.505
BUGSAT 1 04 Mar 00:52:22 00:55:50 25° 296° (WNW) 00:59:11 437.445
STARS 04 Mar 00:52:49 00:55:08 14° 58° (ENE) 00:57:35 437.465
QB50P2 04 Mar 00:53:48 00:56:56 20° 298° (WNW) 00:59:57 145.880/145.840
Oscar 19 04 Mar 00:56:07 00:59:56 21° 90° (E) 01:03:53 437.125/150
BEESAT 04 Mar 00:58:08 01:02:56 89° 75° (ENE) 01:07:46 436.000
SO-50 04 Mar 01:02:25 01:06:00 23° 115° (ESE) 01:09:45 436.795
DUCHIFAT 1 04 Mar 01:08:05 01:10:41 16° 300° (WNW) 01:13:08 145.980
PCSat 04 Mar 01:20:35 01:22:48 12° 360° (N) 01:25:01 145.827
DANDE 04 Mar 01:24:43 01:30:17 34° 288° (WNW) 01:34:32 436.750
ITUPSAT 1 04 Mar 01:26:37 01:31:18 53° 260° (W) 01:36:02 437.325
BEESAT 3 04 Mar 01:28:36 01:32:47 87° 234° (SW) 01:36:54 437.485
POPSAT HIP 1 04 Mar 01:31:27 01:32:08 10° 305° (NW) 01:32:37 437.405
POLYITAN 1 04 Mar 01:31:57 01:32:19 10° 305° (NW) 01:32:32 437.675
RS-15 04 Mar 01:40:39 01:51:22 56° 326° (NW) 02:02:24 29.354- 29.394
CUSAT 1 04 Mar 01:48:20 01:51:55 18° 293° (WNW) 01:54:49 437.405
BEESAT 2 04 Mar 01:55:49 01:59:56 58° 236° (SW) 02:03:58 435.950
AIST 2 04 Mar 02:01:01 02:05:19 72° 48° (NE) 02:09:33 435.215
YUBILEINY 04 Mar 02:14:34 02:22:49 42° 66° (ENE) 02:31:07 435.215
Gurwin Techsat 1B 04 Mar 02:17:03 02:21:42 30° 93° (E) 02:26:24 435.225
KKS-1 04 Mar 02:23:39 02:28:06 63° 258° (WSW) 02:32:34 437.445
STARS 04 Mar 02:26:36 02:31:03 86° 255° (WSW) 02:35:30 437.465
SWISSCUBE 04 Mar 02:30:24 02:33:08 15° 274° (W) 02:35:41 437.505
Oscar 19 04 Mar 02:34:42 02:39:46 61° 290° (WNW) 02:44:49 437.125/150
ITAMSAT 1 04 Mar 02:36:08 02:41:16 54° 100° (E) 02:46:23 435.822/435.867
BEESAT 04 Mar 02:39:15 02:41:35 13° 275° (W) 02:43:42 436.000
HORYU 2 04 Mar 02:39:38 02:41:24 12° 86° (E) 02:43:23 437.375
SO-50 04 Mar 02:41:32 02:46:10 64° 314° (NW) 02:51:00 436.795
M-CUBED/EXP-1 PRIME 04 Mar 02:43:23 02:46:10 25° 59° (ENE) 02:49:08 437.505
AUBIESAT-1 04 Mar 02:44:10 02:46:52 23° 58° (ENE) 02:49:44 437.475
PCSat 04 Mar 03:04:37 03:08:26 19° 25° (NNE) 03:12:19 145.827
BEESAT 3 04 Mar 03:08:33 03:10:16 12° 249° (WSW) 03:11:49 437.485
AIST 2 04 Mar 03:40:38 03:43:28 17° 247° (WSW) 03:46:10 435.215
MOZHAYETS 4 04 Mar 03:45:42 03:50:06 52° 71° (ENE) 03:54:36
JAS-2 04 Mar 03:52:07 03:58:34 32° 91° (E) 04:05:28 435.910
RS-15 04 Mar 03:56:32 04:06:35 37° 358° (N) 04:17:00 29.354- 29.394
Gurwin Techsat 1B 04 Mar 03:56:48 04:01:53 46° 293° (WNW) 04:06:56 435.225
STARS 04 Mar 04:07:01 04:08:19 11° 275° (W) 04:09:21 437.465
YUBILEINY 04 Mar 04:11:28 04:20:02 56° 269° (W) 04:28:31 435.215
AO-7 04 Mar 04:12:10 04:20:08 48° 99° (E) 04:28:05 29.400- 29.500
HORYU 2 04 Mar 04:14:18 04:18:47 85° 283° (WNW) 04:23:14 437.375
CUBESAT XI-V 04 Mar 04:14:55 04:16:50 13° 55° (NE) 04:18:57 437.345
ITAMSAT 1 04 Mar 04:16:09 04:20:31 27° 299° (WNW) 04:24:48 435.822/435.867
Oscar 19 04 Mar 04:16:18 04:18:14 12° 308° (NW) 04:19:57 437.125/150
M-CUBED/EXP-1 PRIME 04 Mar 04:18:11 04:21:07 27° 259° (W) 04:24:09 437.505
AUBIESAT-1 04 Mar 04:18:41 04:21:41 30° 258° (WSW) 04:24:50 437.475
PRISM 04 Mar 04:20:12 04:21:56 13° 57° (ENE) 04:23:49 437.425
SO-50 04 Mar 04:24:04 04:27:39 20° 337° (NNW) 04:31:15 436.795
PCSat 04 Mar 04:47:37 04:53:01 59° 49° (NE) 04:58:23 145.827
STRAND 1 04 Mar 04:56:13 05:00:01 22° 59° (ENE) 05:03:56 437.568
MOZHAYETS 4 04 Mar 05:24:11 05:27:42 21° 270° (W) 05:31:09
JAS-2 04 Mar 05:36:48 05:44:05 68° 290° (WNW) 05:51:50 435.910
CUBESAT XI-V 04 Mar 05:48:51 05:53:32 75° 75° (ENE) 05:58:17 437.345
HORYU 2 04 Mar 05:52:39 05:54:49 13° 304° (WNW) 05:56:50 437.375
PRISM 04 Mar 05:52:39 05:56:50 88° 81° (E) 06:01:03 437.425
AIST 1 04 Mar 05:52:40 05:53:41 11° 82° (E) 05:54:55
AO-7 04 Mar 06:05:08 06:13:04 50° 301° (WNW) 06:20:54 29.400- 29.500
SO-50 04 Mar 06:07:26 06:09:58 14° 1° (N) 06:12:32 436.795
RS-15 04 Mar 06:11:10 06:22:02 52° 30° (NNE) 06:33:26 29.354- 29.394
YUBILEINY 04 Mar 06:11:34 06:14:59 12° 291° (WNW) 06:17:48 435.215
Cubesat XI-IV 04 Mar 06:15:17 06:20:18 39° 96° (E) 06:25:19 437.490
CUTE-I 04 Mar 06:23:43 06:28:52 45° 98° (E) 06:33:59 437.470
GONETS M04 04 Mar 06:28:07 06:32:42 15° 44° (NE) 06:37:42
PCSat 04 Mar 06:31:33 06:36:09 28° 249° (WSW) 06:40:38 145.827
STRAND 1 04 Mar 06:33:38 06:38:47 69° 257° (WSW) 06:43:58 437.568
JAS-2 04 Mar 07:23:10 07:28:07 20° 309° (NW) 07:33:04 435.910
AIST 1 04 Mar 07:26:18 07:30:41 90° 279° (W) 07:35:07
CUBESAT XI-V 04 Mar 07:28:44 07:31:38 16° 274° (W) 07:34:22 437.345
PRISM 04 Mar 07:31:57 07:33:04 11° 275° (W) 07:33:58 437.425
HO-68 04 Mar 07:36:09 07:39:44 15° 82° (E) 07:43:42 435.675
SO-50 04 Mar 07:48:26 07:52:15 22° 25° (NNE) 07:56:08 436.795
GOMX 1 04 Mar 07:54:34 07:55:57 11° 83° (E) 07:57:32 467.674
Cubesat XI-IV 04 Mar 07:55:29 08:00:25 37° 296° (WNW) 08:05:17 437.490
BRITE-PL 04 Mar 07:57:14 08:00:25 19° 87° (E) 08:03:36 437.365/2234.400
AO-7 04 Mar 07:59:12 08:04:05 17° 324° (NW) 08:08:43 29.400- 29.500
CUTE-I 04 Mar 08:04:04 08:08:50 33° 297° (WNW) 08:13:31 437.470
STRAND 1 04 Mar 08:18:15 08:19:07 10° 278° (W) 08:19:38 437.568
DOVE 4 04 Mar 08:20:28 08:22:45 14° 86° (E) 08:25:10 437.250
GONETS M04 04 Mar 08:23:34 08:32:09 56° 72° (ENE) 08:40:46
RS-15 04 Mar 08:23:57 08:35:16 72° 237° (WSW) 08:47:02 29.354- 29.394
SEEDS 04 Mar 08:34:36 08:37:57 23° 92° (E) 08:41:22 437.485
UNISAT 6 04 Mar 08:37:40 08:40:11 16° 60° (ENE) 08:42:50 437.425
CANX-2 04 Mar 08:40:21 08:44:11 32° 95° (E) 08:48:03 2200.000
QB50P2 04 Mar 08:42:25 08:43:15 11° 56° (NE) 08:44:16 145.880/145.840
DUCHIFAT 1 04 Mar 08:54:39 08:56:38 13° 58° (ENE) 08:58:47 145.980
CUTE 1.7 + AOD 2 04 Mar 08:58:32 09:02:38 45° 98° (E) 09:06:44 437.475
DELFI C3 04 Mar 08:59:24 09:00:54 12° 86° (E) 09:02:35 145.870
TIGRISAT 04 Mar 09:00:48 09:04:15 24° 64° (ENE) 09:07:43 435.000
AIST 1 04 Mar 09:07:14 09:09:09 12° 301° (WNW) 09:10:54
O/OREOS (USA 219) 04 Mar 09:14:21 09:18:47 51° 111° (ESE) 09:23:16 437.305
ANTELSAT 04 Mar 09:14:54 09:18:46 32° 67° (ENE) 09:22:38 437.575/2403.000
POPSAT HIP 1 04 Mar 09:15:16 09:18:23 20° 62° (ENE) 09:21:35 437.405
POLYITAN 1 04 Mar 09:15:37 09:18:46 21° 63° (ENE) 09:22:01 437.675
UWE-3 04 Mar 09:19:45 09:22:10 15° 88° (E) 09:24:44 435.000/436.395/437.385
HO-68 04 Mar 09:21:46 09:28:58 70° 104° (ESE) 09:36:09 435.675
ISS 04 Mar 09:25:21 09:28:25 41° 151° (SSE) 09:31:30 145.825
SO-50 04 Mar 09:28:40 09:33:37 73° 47° (NE) 09:38:34 436.795
GOMX 1 04 Mar 09:30:29 09:34:58 83° 285° (WNW) 09:39:11 467.674
BRITE-PL 04 Mar 09:34:55 09:39:28 53° 289° (WNW) 09:43:40 437.365/2234.400
AAUSAT CUBESAT 2 04 Mar 09:35:39 09:39:51 68° 102° (ESE) 09:44:02 437.432
NANOSAT C BR1 04 Mar 09:36:57 09:40:43 31° 66° (ENE) 09:44:30 145.865
COMPASS 1 04 Mar 09:39:40 09:43:54 84° 103° (ESE) 09:48:08 437.405
Oscar 11 04 Mar 09:41:15 09:45:20 39° 97° (E) 09:49:25 145.826/435.025
CINEMA 3 04 Mar 09:51:25 09:55:36 63° 101° (E) 09:59:43 145.822/145.860
DOVE 4 04 Mar 09:56:51 10:01:09 65° 287° (WNW) 10:05:16 437.250
CUBEBUG 2 04 Mar 10:00:00 10:04:01 44° 98° (E) 10:08:01 437.445
50 SAT 04 Mar 10:00:10 10:01:41 12° 87° (E) 10:03:24 437.505
DX 1 04 Mar 10:08:43 10:12:46 35° 97° (E) 10:16:47 434.975-435.025
QB50P1 04 Mar 10:09:43 10:13:57 63° 72° (ENE) 10:18:12 145.935-145.965
SEEDS 04 Mar 10:09:58 10:13:58 41° 290° (WNW) 10:17:57 437.485
BUGSAT 1 04 Mar 10:10:37 10:14:44 49° 70° (ENE) 10:18:54 437.445
UNISAT 6 04 Mar 10:12:10 10:16:33 73° 257° (WSW) 10:20:52 437.425
QB50P2 04 Mar 10:14:11 10:18:27 71° 74° (ENE) 10:22:45 145.880/145.840
CANX-2 04 Mar 10:16:22 10:20:06 30° 293° (WNW) 10:23:48 2200.000
DANDE 04 Mar 10:19:16 10:21:22 19° 67° (ENE) 10:23:24 436.750
HUMSAT D 04 Mar 10:20:45 10:24:18 28° 94° (E) 10:27:54 437.325/437.525
AISAT 04 Mar 10:20:45 10:24:12 22° 91° (E) 10:27:42 437.250
GONETS M04 04 Mar 10:20:50 10:28:49 40° 274° (W) 10:36:42
DUCHIFAT 1 04 Mar 10:27:37 10:31:55 88° 250° (WSW) 10:36:13 145.980
VELOX 1 04 Mar 10:29:13 10:32:55 26° 93° (E) 10:36:39 145.980
FUNcube-1 04 Mar 10:29:43 10:33:51 62° 101° (E) 10:37:58 145.935
ZACube-1 04 Mar 10:31:39 10:35:48 66° 102° (ESE) 10:39:56 437.345
DELFI C3 04 Mar 10:32:36 10:36:43 78° 286° (WNW) 10:40:48 145.870
CUTE 1.7 + AOD 2 04 Mar 10:34:59 10:38:20 23° 296° (WNW) 10:41:38 437.475
UKube-1 04 Mar 10:35:47 10:40:07 62° 102° (ESE) 10:44:25 .
TIGRISAT 04 Mar 10:36:39 10:40:50 43° 262° (W) 10:44:57 435.000
CUSAT 1 04 Mar 10:37:46 10:40:23 49° 76° (ENE) 10:42:56 437.405
RS-15 04 Mar 10:37:57 10:45:58 21° 259° (W) 10:53:35 29.354- 29.394
POPSAT HIP 1 04 Mar 10:49:46 10:53:59 53° 260° (W) 10:58:12 437.405
POLYITAN 1 04 Mar 10:50:14 10:54:26 51° 260° (W) 10:58:38 437.675
ANTELSAT 04 Mar 10:51:41 10:55:36 31° 265° (W) 10:59:26 437.575/2403.000
ESTCUBE 1 04 Mar 10:51:45 10:55:22 23° 91° (E) 10:59:03 437.505/2401.250
O/OREOS (USA 219) 04 Mar 10:54:36 10:58:30 26° 312° (NW) 11:02:21 437.305
UWE-3 04 Mar 10:55:05 10:59:12 60° 287° (WNW) 11:03:18 435.000/436.395/437.385
ISS 04 Mar 11:01:34 11:04:47 66° 349° (N) 11:08:01 145.825
SO-50 04 Mar 11:10:01 11:13:47 21° 246° (WSW) 11:17:25 436.795
HO-68 04 Mar 11:10:05 11:16:16 31° 305° (NW) 11:22:20 435.675
GOMX 1 04 Mar 11:10:34 11:12:24 12° 305° (NW) 11:14:00 467.674
AAUSAT CUBESAT 2 04 Mar 11:12:26 11:15:03 16° 299° (WNW) 11:17:34 437.432
NANOSAT C BR1 04 Mar 11:12:42 11:16:34 32° 265° (W) 11:20:25 145.865
COMPASS 1 04 Mar 11:16:57 11:19:04 13° 301° (WNW) 11:21:03 437.405
Oscar 11 04 Mar 11:17:45 11:21:23 26° 295° (WNW) 11:24:57 145.826/435.025
CINEMA 3 04 Mar 11:29:44 11:32:26 16° 300° (WNW) 11:34:59 145.822/145.860
50 SAT 04 Mar 11:33:18 11:37:15 72° 286° (WNW) 11:41:12 437.505
CUBEBUG 2 04 Mar 11:37:17 11:40:31 22° 296° (WNW) 11:43:40 437.445
AO-7 04 Mar 11:40:58 11:42:02 10° 22° (NNE) 11:43:22 29.400- 29.500
DX 1 04 Mar 11:45:08 11:48:58 29° 295° (WNW) 11:52:42 434.975-435.025
BUGSAT 1 04 Mar 11:47:19 11:50:33 20° 269° (W) 11:53:40 437.445
QB50P1 04 Mar 11:47:37 11:50:19 16° 272° (W) 11:52:52 145.935-145.965
QB50P2 04 Mar 11:52:34 11:54:56 14° 273° (W) 11:57:09 145.880/145.840
CUBEBUG 1 04 Mar 11:53:31 11:57:58 80° 103° (ESE) 12:02:22 437.445
HUMSAT D 04 Mar 11:56:26 12:00:08 32° 293° (WNW) 12:03:47 437.325/437.525
AISAT 04 Mar 11:56:48 12:01:06 47° 291° (WNW) 12:05:20 437.250
DANDE 04 Mar 12:03:10 12:04:32 13° 270° (W) 12:05:46 436.750
VELOX 1 04 Mar 12:05:28 12:09:40 40° 292° (WNW) 12:13:49 145.980
Gurwin Techsat 1B 04 Mar 12:05:53 12:08:28 14° 53° (NE) 12:11:14 435.225
FUNcube-1 04 Mar 12:07:06 12:09:49 17° 299° (WNW) 12:12:25 145.935
DUCHIFAT 1 04 Mar 12:07:27 12:08:31 11° 275° (W) 12:09:20 145.980
ZACube-1 04 Mar 12:09:09 12:11:46 16° 299° (WNW) 12:14:15 437.345
DELFI C3 04 Mar 12:10:16 12:11:16 11° 303° (WNW) 12:12:05 145.870
UKube-1 04 Mar 12:12:51 12:15:54 18° 300° (WNW) 12:18:49 .
TISAT 1 04 Mar 12:15:28 12:19:20 34° 96° (E) 12:23:11 437.305
Oscar 19 04 Mar 12:16:57 12:21:50 47° 68° (ENE) 12:26:46 437.125/150
SPROUT 04 Mar 12:18:17 12:22:22 40° 98° (E) 12:26:25 437.525
ITAMSAT 1 04 Mar 12:20:47 12:24:42 22° 59° (ENE) 12:28:44 435.822/435.867
ESTCUBE 1 04 Mar 12:28:07 12:32:31 47° 291° (WNW) 12:36:53 437.505/2401.250
ISS 04 Mar 12:38:12 12:41:25 66° 10° (N) 12:44:39 145.825
SWISSCUBE 04 Mar 12:47:04 12:49:53 16° 87° (E) 12:52:51 437.505
BEESAT 04 Mar 12:55:08 12:58:13 17° 88° (E) 13:01:26 436.000
ITUPSAT 1 04 Mar 13:23:02 13:27:14 29° 94° (E) 13:31:29 437.325
AO-7 04 Mar 13:25:30 13:32:06 28° 48° (NE) 13:38:50 29.400- 29.500
CUBEBUG 1 04 Mar 13:31:11 13:33:49 15° 302° (WNW) 13:36:18 437.445
HORYU 2 04 Mar 13:41:43 13:45:00 21° 62° (ENE) 13:48:23 437.375
Gurwin Techsat 1B 04 Mar 13:42:20 13:47:36 71° 72° (ENE) 13:52:57 435.225
TISAT 1 04 Mar 13:51:25 13:55:06 28° 294° (WNW) 13:58:41 437.305
SPROUT 04 Mar 13:54:44 13:58:18 25° 296° (WNW) 14:01:46 437.525
Oscar 19 04 Mar 13:57:02 14:01:27 28° 267° (W) 14:05:48 437.125/150
ITAMSAT 1 04 Mar 13:58:34 14:03:47 68° 257° (WSW) 14:09:02 435.822/435.867
JAS-2 04 Mar 14:11:03 14:15:11 21° 52° (NE) 14:19:50 435.910
KKS-1 04 Mar 14:11:19 14:14:25 19° 90° (E) 14:17:36 437.445
STARS 04 Mar 14:13:51 14:15:51 13° 86° (E) 14:18:02 437.465
ISS 04 Mar 14:14:42 14:17:49 43° 209° (SSW) 14:20:54 145.825
SWISSCUBE 04 Mar 14:23:33 14:28:24 77° 287° (WNW) 14:33:12 437.505
BEESAT 04 Mar 14:31:50 14:36:38 70° 288° (WNW) 14:41:25 436.000
ITUPSAT 1 04 Mar 15:00:44 15:05:16 41° 293° (WNW) 15:09:46 437.325
AO-7 04 Mar 15:15:39 15:24:01 88° 73° (ENE) 15:32:25 29.400- 29.500
HORYU 2 04 Mar 15:17:02 15:21:22 53° 260° (W) 15:25:44 437.375
YUBILEINY 04 Mar 15:21:32 15:29:19 39° 85° (E) 15:37:18 435.215
Gurwin Techsat 1B 04 Mar 15:24:20 15:28:13 20° 272° (W) 15:31:56 435.225
ITAMSAT 1 04 Mar 15:43:30 15:44:26 10° 278° (W) 15:45:02 435.822/435.867
KKS-1 04 Mar 15:47:06 15:51:28 56° 289° (WNW) 15:55:48 437.445
STARS 04 Mar 15:48:34 15:52:59 79° 287° (WNW) 15:57:21 437.465
JAS-2 04 Mar 15:53:44 15:59:24 89° 254° (WSW) 16:05:55 435.910
M-CUBED/EXP-1 PRIME 04 Mar 15:55:43 15:57:36 13° 94° (E) 15:59:45 437.505
AUBIESAT-1 04 Mar 15:56:15 15:57:42 12° 93° (E) 15:59:24 437.475
SWISSCUBE 04 Mar 16:03:10 16:05:32 13° 305° (NW) 16:07:45 437.505
Cubesat XI-IV 04 Mar 16:04:03 16:07:34 18° 56° (NE) 16:11:14 437.490
BEESAT 04 Mar 16:11:41 16:13:43 12° 306° (NW) 16:15:33 436.000
CUTE-I 04 Mar 16:12:01 16:15:50 21° 57° (ENE) 16:19:48 437.470
BEESAT 3 04 Mar 17:03:55 17:07:48 42° 122° (ESE) 17:11:46 437.485
AO-7 04 Mar 17:11:24 17:18:00 24° 272° (W) 17:24:20 29.400- 29.500
MOZHAYETS 4 04 Mar 17:13:22 17:18:02 70° 102° (ESE) 17:22:40
VERMONT LUNAR 04 Mar 17:16:42 17:17:55 12° 161° (SSE) 17:19:11 437.305
YUBILEINY 04 Mar 17:17:19 17:25:55 57° 288° (WNW) 17:34:36 435.215
STARS 04 Mar 17:26:59 17:28:47 12° 304° (NW) 17:30:23 437.465
M-CUBED/EXP-1 PRIME 04 Mar 17:28:49 17:33:02 86° 293° (WNW) 17:37:36 437.505
AUBIESAT-1 04 Mar 17:28:53 17:33:08 86° 107° (ESE) 17:37:42 437.475
AIST 1 04 Mar 17:29:12 17:33:18 36° 72° (ENE) 17:37:23
BEESAT 2 04 Mar 17:31:39 17:35:45 66° 126° (SE) 17:39:55 435.950
O/OREOS (USA 219) 04 Mar 17:40:54 17:45:01 31° 51° (NE) 17:49:09 437.305
AIST 2 04 Mar 17:41:27 17:45:22 36° 120° (ESE) 17:49:20 435.215
Cubesat XI-IV 04 Mar 17:41:39 17:47:03 88° 249° (WSW) 17:52:30 437.490
JAS-2 04 Mar 17:42:08 17:45:48 16° 279° (W) 17:49:26 435.910
CUBESAT XI-V 04 Mar 17:42:45 17:45:14 14° 85° (E) 17:47:53 437.345
CUTE-I 04 Mar 17:50:01 17:55:24 77° 255° (WSW) 18:00:50 437.470
HO-68 04 Mar 18:09:45 18:14:48 22° 49° (NE) 18:20:02 435.675
STRAND 1 04 Mar 18:40:05 18:44:33 29° 94° (E) 18:49:03 437.568
BEESAT 3 04 Mar 18:42:15 18:46:01 32° 322° (NW) 18:49:48 437.485
MOZHAYETS 4 04 Mar 18:51:37 18:54:49 18° 300° (WNW) 18:57:54
VERMONT LUNAR 04 Mar 18:52:33 18:55:03 18° 177° (S) 18:57:33 437.305
AAUSAT CUBESAT 2 04 Mar 18:58:43 18:59:54 11° 57° (ENE) 19:01:16 437.432
COMPASS 1 04 Mar 19:02:11 19:04:12 14° 59° (ENE) 19:06:22 437.405
AUBIESAT-1 04 Mar 19:05:03 19:07:35 15° 306° (NW) 19:10:04 437.475
GOMX 1 04 Mar 19:05:13 19:09:30 27° 64° (ENE) 19:13:39 467.674
M-CUBED/EXP-1 PRIME 04 Mar 19:05:14 19:07:31 14° 306° (NW) 19:09:44 437.505
PRISM 04 Mar 19:06:28 19:10:44 81° 104° (ESE) 19:14:58 437.425
AIST 1 04 Mar 19:07:08 19:10:52 26° 271° (W) 19:14:30
BEESAT 2 04 Mar 19:10:50 19:14:19 25° 327° (NNW) 19:17:47 435.950
BRITE-PL 04 Mar 19:10:54 19:16:03 41° 68° (ENE) 19:20:59 437.365/2234.400
PHONESAT 2.4 04 Mar 19:12:25 19:15:01 19° 173° (S) 19:17:37 2401.200-2431.200
CUBESAT XI-V 04 Mar 19:18:37 19:23:22 80° 287° (WNW) 19:28:04 437.345
AIST 2 04 Mar 19:19:56 19:23:58 38° 320° (NW) 19:28:02 435.215
YUBILEINY 04 Mar 19:20:06 19:25:18 16° 315° (NW) 19:30:09 435.215
O/OREOS (USA 219) 04 Mar 19:20:15 19:24:34 39° 251° (WSW) 19:28:49 437.305
CINEMA 3 04 Mar 19:22:32 19:25:04 15° 60° (ENE) 19:27:42 145.822/145.860
Cubesat XI-IV 04 Mar 19:25:00 19:28:04 15° 275° (W) 19:30:53 437.490
DOVE 4 04 Mar 19:29:19 19:33:35 29° 66° (ENE) 19:37:43 437.250
SEEDS 04 Mar 19:31:06 19:34:40 28° 66° (ENE) 19:38:18 437.485
CUTE-I 04 Mar 19:34:07 19:36:31 13° 277° (W) 19:38:39 437.470
PCSat 04 Mar 19:35:11 19:39:00 20° 108° (ESE) 19:42:59 145.827
CANX-2 04 Mar 19:37:34 19:41:31 41° 69° (ENE) 19:45:30 2200.000
GONETS M04 04 Mar 19:41:16 19:43:23 11° 69° (ENE) 19:46:06
DELFI C3 04 Mar 19:51:43 19:53:58 15° 60° (ENE) 19:56:19 145.870
HO-68 04 Mar 19:54:28 20:01:36 79° 70° (ENE) 20:08:49 435.675
CUTE 1.7 + AOD 2 04 Mar 19:55:37 19:59:44 56° 72° (ENE) 20:03:53 437.475
FUNcube-1 04 Mar 19:56:37 19:58:13 12° 58° (ENE) 19:59:59 145.935
ZACube-1 04 Mar 19:58:27 20:00:18 13° 58° (ENE) 20:02:17 437.345
UKube-1 04 Mar 20:01:26 20:03:36 14° 57° (ENE) 20:05:54 .
STRAND 1 04 Mar 20:19:02 20:23:58 45° 293° (WNW) 20:28:49 437.568
UWE-3 04 Mar 20:21:00 20:24:27 24° 64° (ENE) 20:27:54 435.000/436.395/437.385
BEESAT 3 04 Mar 20:23:35 20:25:20 12° 345° (NNW) 20:27:03 437.485
VERMONT LUNAR 04 Mar 20:30:12 20:32:13 15° 194° (SSW) 20:34:14 437.305
AAUSAT CUBESAT 2 04 Mar 20:30:47 20:34:55 81° 75° (ENE) 20:39:06 437.432
COMPASS 1 04 Mar 20:35:13 20:39:23 81° 257° (WSW) 20:43:35 437.405
Oscar 11 04 Mar 20:40:09 20:44:20 52° 71° (ENE) 20:48:33 145.826/435.025
GOMX 1 04 Mar 20:42:14 20:47:26 52° 261° (W) 20:52:19 467.674
PRISM 04 Mar 20:43:21 20:45:43 14° 302° (WNW) 20:47:55 437.425
BRITE-PL 04 Mar 20:49:31 20:54:38 35° 265° (W) 20:59:28 437.365/2234.400
PHONESAT 2.4 04 Mar 20:50:16 20:52:45 17° 190° (S) 20:55:13 2401.200-2431.200
50 SAT 04 Mar 20:51:07 20:53:21 15° 61° (ENE) 20:55:44 437.505
BEESAT 2 04 Mar 20:52:42 20:53:54 11° 350° (N) 20:55:04 435.950
CINEMA 3 04 Mar 20:57:05 21:01:48 84° 256° (WSW) 21:06:19 145.822/145.860
CUBESAT XI-V 04 Mar 20:57:47 21:00:07 13° 304° (NW) 21:02:18 437.345
AIST 2 04 Mar 21:01:28 21:03:45 14° 342° (NNW) 21:05:59 435.215
CUBEBUG 2 04 Mar 21:02:21 21:06:45 66° 73° (ENE) 21:11:03 437.445
DOVE 4 04 Mar 21:06:26 21:11:15 43° 263° (W) 21:15:49 437.250
SEEDS 04 Mar 21:06:38 21:10:27 33° 265° (W) 21:14:15 437.485
DX 1 04 Mar 21:08:21 21:12:38 54° 70° (ENE) 21:16:58 434.975-435.025
CANX-2 04 Mar 21:14:14 21:17:39 23° 268° (W) 21:21:00 2200.000
PCSat 04 Mar 21:16:28 21:21:54 78° 308° (NW) 21:27:22 145.827
HUMSAT D 04 Mar 21:16:55 21:20:44 36° 68° (ENE) 21:24:33 437.325/437.525
CUBEBUG 1 04 Mar 21:19:35 21:22:20 17° 59° (ENE) 21:25:13 437.445
AISAT 04 Mar 21:22:43 21:26:47 35° 67° (ENE) 21:30:54 437.250
DELFI C3 04 Mar 21:24:41 21:28:42 69° 258° (WSW) 21:32:46 145.870
FUNcube-1 04 Mar 21:29:39 21:33:59 85° 75° (ENE) 21:38:15 145.935
GONETS M04 04 Mar 21:30:01 21:38:18 54° 90° (E) 21:46:42
VELOX 1 04 Mar 21:30:57 21:35:07 40° 68° (ENE) 21:39:21 145.980
ZACube-1 04 Mar 21:31:47 21:36:08 90° 77° (ENE) 21:40:24 437.345
CUTE 1.7 + AOD 2 04 Mar 21:33:15 21:36:05 17° 271° (W) 21:38:48 437.475
UKube-1 04 Mar 21:34:49 21:39:11 88° 255° (WSW) 21:43:35 .
HO-68 04 Mar 21:44:30 21:50:12 24° 271° (W) 21:55:44 435.675
ESTCUBE 1 04 Mar 21:55:32 21:59:39 36° 67° (ENE) 22:03:51 437.505/2401.250
UWE-3 04 Mar 21:56:37 22:00:50 43° 262° (W) 22:04:56 435.000/436.395/437.385
UNISAT 6 04 Mar 22:00:45 22:03:27 16° 89° (E) 22:06:17 437.425
BEESAT 3 04 Mar 22:04:20 22:05:11 11° 8° (N) 22:06:06 437.485
AAUSAT CUBESAT 2 04 Mar 22:09:39 22:11:14 12° 275° (W) 22:12:37 437.432
DUCHIFAT 1 04 Mar 22:10:38 22:11:48 11° 85° (E) 22:13:12 145.980
Oscar 11 04 Mar 22:17:46 22:20:53 19° 270° (W) 22:23:54 145.826/435.025
50 SAT 04 Mar 22:24:00 22:27:57 65° 258° (WSW) 22:31:54 437.505
TIGRISAT 04 Mar 22:24:01 22:27:38 26° 94° (E) 22:31:20 435.000
POPSAT HIP 1 04 Mar 22:31:33 22:34:31 19° 90° (E) 22:37:34 437.405
POLYITAN 1 04 Mar 22:32:13 22:35:15 19° 90° (E) 22:38:22 437.675
BEESAT 2 04 Mar 22:32:17 22:33:52 12° 14° (NNE) 22:35:29 435.950
CINEMA 3 04 Mar 22:38:17 22:39:46 11° 275° (W) 22:41:00 145.822/145.860
ANTELSAT 04 Mar 22:38:43 22:42:44 37° 97° (E) 22:46:48 437.575/2403.000
CUBEBUG 2 04 Mar 22:41:12 22:43:56 15° 272° (W) 22:46:30 437.445
AIST 2 04 Mar 22:42:55 22:44:08 11° 6° (N) 22:45:22 435.215
DX 1 04 Mar 22:46:03 22:49:16 19° 270° (W) 22:52:22 434.975-435.025
RS-15 04 Mar 22:52:44 23:02:53 49° 114° (ESE) 23:13:19 29.354- 29.394
HUMSAT D 04 Mar 22:53:06 22:56:38 25° 267° (W) 23:00:06 437.325/437.525
NANOSAT C BR1 04 Mar 22:53:16 22:56:59 30° 95° (E) 23:00:44 145.865
CUBEBUG 1 04 Mar 22:53:47 22:58:14 73° 257° (WSW) 23:02:43 437.445
AISAT 04 Mar 22:59:26 23:03:27 31° 265° (W) 23:07:26 437.250
PCSat 04 Mar 23:01:57 23:06:13 22° 330° (NNW) 23:10:26 145.827
VELOX 1 04 Mar 23:08:02 23:11:51 26° 267° (W) 23:15:39 145.980
FUNcube-1 04 Mar 23:09:23 23:11:00 12° 274° (W) 23:12:25 145.935
TISAT 1 04 Mar 23:11:50 23:15:56 46° 70° (ENE) 23:20:03 437.305
ZACube-1 04 Mar 23:11:58 23:13:13 11° 275° (W) 23:14:15 437.345
UKube-1 04 Mar 23:14:47 23:16:07 11° 275° (W) 23:17:12 .
SPROUT 04 Mar 23:16:30 23:20:45 55° 72° (ENE) 23:25:01 437.525
